SCP
10 11 10 8 6 6 7 9 9 9 10 10 9 7 5 5 4 4 4 4 3 3 2 2 2 2 3 3 3 3 2 1 0 0 0 0 0 0 0 0 0 1 1
11 11 10 9 7 7 8 9 9 9 9 9 8 7 6 5 5 4 4 4 4 3 2 2 2 2 2 2 2 2 2 1 0 0 0 0 0 0 0 0 0 0 0
11 11 9 8 8 7 8 8 8 8 8 7 7 7 7 6 5 5 5 5 5 4 3 2 1 1 1 1 1 1 1 1 0 0 0 0 0 0 0 0 0 0 0
10 9 8 8 8 7 6 6 6 7 7 7 7 8 8 7 6 5 5 6 6 5 4 2 1 1 1 1 1 1 1 1 0 0 0 0 0 0 0 0 0 0 0
9 7 8 9 8 6 5 5 4 5 5 6 6 7 8 7 5 5 5 6 6 6 4 3 1 1 1 1 1 1 1 1 0 0 0 0 0 0 0 0 0 0 0
8 7 6 7 7 6 5 5 5 5 4 4 5 5 6 6 5 4 5 6 6 5 4 3 1 1 1 2 1 1 1 1 0 0 0 0 0 0 0 0 0 0 0
8 7 6 5 5 6 6 6 6 6 4 3 3 4 4 4 4 3 4 5 5 3 3 2 1 1 1 2 1 1 1 0 0 0 0 0 0 0 0 0 0 0 0
8 7 6 4 4 6 6 6 6 6 4 2 2 3 3 3 3 2 3 4 4 3 2 1 1 1 1 1 1 1 1 0 0 0 0 0 0 0 0 0 0 0 0
6 5 5 4 4 5 6 6 5 4 3 2 2 2 2 2 2 2 2 3 3 2 2 1 1 1 1 1 1 1 1 1 0 0 0 0 0 0 0 0 0 0 0
3 3 3 3 4 6 6 6 4 3 2 2 1 1 1 1 1 1 2 2 2 2 2 1 1 1 1 1 1 1 1 1 0 0 0 0 0 0 0 0 0 0 0
1 1 2 4 5 6 6 6 4 3 2 2 2 1 1 1 1 1 1 1 1 1 1 1 1 1 1 1 1 1 1 1 1 0 0 0 0 0 0 0 0 0 0
1 1 3 5 6 6 6 5 4 3 2 2 2 1 1 1 1 0 1 1 1 1 1 1 1 1 1 1 1 1 1 1 1 0 0 0 0 0 0 0 0 0 0
1 2 5 7 7 5 5 4 3 2 2 2 2 1 1 1 1 0 0 0 1 1 1 1 1 1 1 1 1 1 1 1 1 1 0 0 0 0 0 0 0 0 0
1 3 7 9 7 5 4 3 2 2 2 2 2 1 1 1 1 0 0 0 0 0 1 1 1 1 1 1 1 1 1 1 1 1 1 0 0 0 0 0 0 0 0
1 3 6 8 7 5 3 2 1 1 1 1 1 1 1 1 1 0 0 0 0 0 0 1 1 1 1 1 1 1 1 1 1 0 0 0 0 0 0 0 0 0 0
1 1 3 5 5 4 2 1 1 1 1 1 1 1 1 1 0 0 0 0 0 0 0 0 1 1 1 0 0 0 1 1 1 0 0 0 0 0 0 0 0 0 0
1 1 1 2 2 1 1 1 1 1 1 1 1 1 0 0 0 0 0 0 0 0 0 0 0 0 0 0 0 0 0 0 1 0 0 0 0 0 0 0 0 0 0
1 1 1 1 1 1 0 1 1 1 1 0 0 0 0 0 0 0 0 0 0 0 0 0 0 0 0 0 0 0 0 0 0 0 0 0 0 0 0 0 0 0 0
1 1 1 1 1 1 1 1 1 1 0 0 0 0 0 0 0 0 0 0 0 0 0 0 0 0 0 0 0 0 0 0 0 0 0 0 0 0 0 0 0 0 0
1 1 1 1 1 1 1 1 1 0 0 0 0 0 0 0 0 0 0 0 0 0 0 0 0 0 0 0 0 0 0 0 0 0 0 0 0 0 0 0 0 0 0
0 0 0 0 0 0 0 0 0 0 0 0 0 0 0 0 0 0 0 0 0 0 0 0 0 0 0 0 0 0 0 0 0 0 0 0 0 0 0 0 0 0 0
0 0 0 0 0 0 0 0 0 0 0 0 0 0 0 0 0 0 0 0 0 0 0 0 0 0 0 0 0 0 0 0 0 0 0 0 0 0 0 0 0 0 0
0 0 0 0 0 0 0 0 0 0 0 0 0 0 0 0 0 0 0 0 0 0 0 0 0 0 0 0 0 0 0 0 0 0 0 0 0 0 0 0 0 0 0
1 0 0 0 0 0 0 0 0 0 0 0 0 0 0 0 0 0 0 0 0 0 0 0 0 0 0 0 0 0 0 0 0 0 0 0 0 0 0 0 0 0 0
1 1 0 0 0 0 0 0 0 0 0 0 0 0 0 0 0 0 0 0 0 0 0 0 0 0 0 0 0 0 0 0 0 0 0 0 0 0 0 0 0 0 0
1 1 0 0 0 0 0 0 0 0 0 0 0 0 0 0 0 0 0 0 0 0 0 0 0 0 0 0 0 0 0 0 0 0 0 0 0 0 0 0 0 0 0
Wind_Speed
4 3 4 5 5 4 5 6 6 5 4 3 3 2 2 1 1 1 1 1 1 1 0 1 0 0 1 1 1 1 1 1 0 1 3 3 3 2 2 2 1 2 2
3 4 4 5 5 5 4 5 5 5 5 3 2 2 2 2 2 1 1 2 2 2 1 1 1 1 0 1 1 1 0 1 0 1 1 3 4 3 2 2 1 2 2
6 5 5 4 5 5 5 4 4 5 4 4 2 2 2 1 1 0 1 2 3 2 2 2 1 1 1 1 2 1 2 1 1 1 2 1 2 4 3 2 2 2 2
4 4 4 4 4 5 4 5 4 5 4 5 4 4 3 2 2 2 2 2 2 2 2 2 1 1 1 2 2 2 2 2 1 1 1 2 3 1 3 4 3 3 3
6 6 5 5 4 4 3 3 3 3 4 4 4 4 2 2 1 1 1 2 1 1 2 2 2 2 2 3 3 2 2 2 3 2 2 1 1 2 2 4 4 3 3
4 3 2 2 2 2 2 3 3 3 3 3 4 4 4 3 2 2 2 2 1 2 2 2 2 3 3 3 3 3 3 3 3 3 2 2 2 2 2 3 3 4 4
3 3 2 2 2 2 3 3 4 3 3 3 3 4 4 4 4 4 3 2 1 2 3 2 2 2 3 3 3 3 3 4 4 4 3 3 3 3 3 3 3 3 3
2 3 3 3 3 3 3 4 5 4 3 3 2 3 4 3 3 4 3 3 3 3 3 3 3 3 3 3 3 3 4 3 4 5 4 3 3 3 3 3 2 3 3
3 4 4 3 3 4 3 5 5 4 3 3 3 2 3 3 3 3 3 2 2 2 3 3 3 4 4 3 3 3 4 3 4 4 4 3 3 3 3 3 3 3 3
2 3 3 3 3 3 3 3 4 4 3 3 3 2 2 2 3 2 3 3 3 2 2 3 3 4 3 2 2 2 3 2 3 3 3 3 3 3 3 3 3 4 4
3 3 3 2 2 2 2 3 3 2 2 2 2 1 1 1 1 2 2 2 2 2 3 3 3 3 3 2 2 2 2 2 3 3 3 4 4 2 3 3 3 3 3
1 2 2 3 3 3 2 2 2 2 2 2 2 1 1 1 1 2 2 2 2 3 3 3 2 3 3 2 2 3 3 3 3 4 3 4 3 3 3 2 3 3 3
1 2 2 2 3 3 2 2 2 1 1 2 2 1 1 1 1 2 2 2 2 3 3 2 2 3 2 2 2 2 3 3 4 4 3 4 3 3 3 3 3 3 3
2 2 2 2 2 3 3 2 1 1 1 1 1 1 2 2 2 2 2 2 2 2 2 2 3 3 2 2 3 2 3 3 3 3 3 4 4 4 4 3 3 3 3
2 2 2 2 3 2 2 2 1 1 1 1 1 2 2 2 2 2 2 2 2 2 2 2 3 2 2 2 2 3 3 3 4 3 3 3 3 4 4 3 3 3 2
1 1 3 3 3 3 2 2 1 1 1 1 2 2 1 2 2 2 2 2 2 2 2 3 2 2 2 3 4 3 3 3 3 4 4 4 3 5 6 7 6 4 4
1 1 2 3 3 3 3 2 2 1 1 1 2 2 2 2 2 3 2 2 2 2 3 3 2 2 3 4 5 4 3 3 3 3 4 4 4 5 4 6 6 6 6
1 1 1 2 2 2 1 1 1 1 1 1 2 2 2 2 2 2 2 2 2 2 2 2 2 2 3 4 5 5 3 3 3 3 3 3 5 5 4 4 4 5 5
1 2 2 2 2 1 1 2 1 1 1 1 2 2 2 2 2 2 2 2 2 2 2 2 2 2 4 5 4 3 2 2 4 3 3 3 4 6 5 3 4 5 5
1 1 1 1 2 1 2 2 1 1 1 2 2 2 1 1 2 2 2 2 1 2 2 2 2 2 3 5 4 3 1 2 3 4 4 4 5 6 5 3 3 4 5
1 1 1 2 2 2 2 2 1 1 2 2 1 1 1 1 1 1 1 1 1 1 2 3 3 2 3 4 5 4 0 1 3 3 4 4 7 7 6 4 3 5 5
1 1 1 1 1 2 3 2 1 2 1 0 1 1 1 1 1 1 2 1 1 1 2 2 3 2 2 3 4 5 3 2 1 3 3 4 8 8 7 4 4 5 4
0 0 2 2 1 1 3 2 1 0 1 1 1 1 2 2 1 1 1 2 1 1 1 1 1 2 3 3 5 6 6 5 2 2 5 7 7 6 5 6 6 4 2
0 0 2 2 1 0 1 2 1 1 2 1 1 1 2 3 3 2 1 1 1 1 1 1 1 2 2 3 4 4 4 5 4 4 5 6 6 6 6 5 5 3 2
1 1 2 2 1 1 1 1 1 2 1 1 1 1 1 1 2 2 2 1 1 1 1 0 0 0 2 3 3 2 3 3 3 3 3 4 4 5 4 4 4 4 4
1 1 1 1 1 1 0 1 0 1 1 1 1 1 1 1 1 1 3 4 2 2 1 1 1 0 1 3 4 5 6 6 5 4 3 4 4 4 4 4 4 4 4
Wind_Direction
170 155 143 134 127 129 143 151 142 144 137 136 137 138 151 166 167 175 169 152 168 158 156 196 175 164 193 219 216 220 263 273 304 6 325 311 293 279 267 259 257 262 252
146 143 138 135 135 136 145 147 143 146 152 157 168 168 166 181 189 188 185 192 200 203 191 197 206 199 222 286 248 181 212 278 104 122 23 330 328 320 306 298 274 265 262
164 162 157 150 139 149 160 160 160 156 158 154 133 105 78 60 50 204 227 219 205 206 201 199 199 205 195 231 237 194 173 231 272 157 156 172 259 300 308 298 291 285 278
149 154 154 155 165 174 165 156 165 162 159 156 153 153 154 180 217 216 229 246 229 217 205 198 196 212 219 238 237 204 189 183 242 276 218 197 193 210 299 309 297 286 278
158 162 171 175 175 170 158 156 158 159 160 163 166 163 170 194 212 223 229 260 266 235 224 210 214 221 224 233 241 236 217 200 206 217 226 237 233 195 198 279 300 304 280
155 158 161 149 147 146 147 148 151 165 166 172 179 179 185 189 184 222 227 248 269 265 249 232 230 236 225 227 230 233 234 230 223 222 209 199 208 225 209 241 273 285 282
156 153 153 148 151 166 169 164 161 175 182 181 189 193 195 192 200 213 216 223 241 257 260 254 249 251 237 225 221 226 240 233 228 229 229 220 218 208 200 214 255 273 282
175 177 187 178 166 175 170 169 175 184 187 188 198 202 204 199 210 211 209 216 226 236 241 240 257 257 246 239 224 230 244 242 239 237 230 234 239 216 201 199 214 275 286
202 202 200 187 179 174 180 179 172 174 182 187 187 203 209 202 213 219 220 228 236 239 243 247 264 265 251 245 233 237 247 251 250 248 242 237 247 232 222 209 196 203 258
210 202 194 186 185 175 176 171 167 176 188 186 188 199 211 213 211 212 223 233 242 245 254 262 268 266 264 259 244 248 257 257 261 247 248 248 250 249 239 227 218 202 212
219 201 194 194 175 149 144 149 155 158 166 175 170 171 211 212 213 226 241 235 240 250 256 264 271 272 269 263 261 263 269 269 272 259 249 255 255 251 253 241 231 221 203
239 187 165 147 131 121 121 125 140 148 164 160 146 166 207 211 242 268 263 245 248 256 260 264 271 269 269 269 264 271 279 277 274 271 262 262 259 254 256 249 245 242 224
150 112 112 130 136 137 137 138 149 163 161 145 145 174 218 237 260 269 270 263 260 272 285 280 279 277 275 275 269 260 271 274 267 264 256 258 255 261 263 252 251 253 253
126 118 102 113 130 135 136 141 152 176 159 146 153 200 236 249 258 267 272 271 269 274 283 277 274 266 265 276 279 280 279 282 282 271 259 260 247 246 256 257 254 255 260
65 120 131 139 138 132 130 142 155 188 165 140 185 241 250 257 265 275 283 284 281 279 268 279 283 280 273 273 280 281 285 286 293 288 277 271 265 264 261 261 254 250 247
29 147 154 153 154 162 169 167 177 197 148 156 221 248 251 258 268 275 277 283 285 287 287 285 267 275 286 297 290 281 283 284 288 294 291 280 278 286 282 274 260 235 231
260 184 174 175 186 191 179 179 190 176 157 200 243 253 246 250 260 271 280 285 280 283 295 285 270 272 283 291 294 290 280 277 277 279 286 296 302 301 292 289 287 270 257
249 244 195 178 193 193 185 175 153 156 182 217 245 254 247 253 268 280 279 274 270 272 280 284 286 287 300 297 296 305 302 283 282 277 275 285 299 303 299 292 294 285 277
209 206 194 176 177 172 162 130 126 161 208 246 253 258 248 250 275 285 282 274 270 285 284 284 295 295 301 304 301 312 319 309 304 299 296 296 301 308 312 300 293 297 296
154 156 148 128 152 184 145 129 150 181 240 251 253 257 238 230 263 275 281 273 261 274 302 315 299 283 294 312 314 320 314 310 308 312 313 307 308 309 310 287 279 288 290
127 117 128 154 195 191 142 138 156 235 253 262 271 318 316 276 260 284 294 294 306 334 335 324 319 318 313 324 329 337 323 284 304 312 314 311 320 320 321 306 259 265 282
56 93 128 171 201 159 132 133 226 256 266 4 11 319 300 295 333 9 339 346 11 349 326 334 334 331 334 351 349 359 357 343 318 305 307 312 324 330 331 328 319 319 322
12 99 132 131 107 133 132 137 248 252 70 50 9 333 327 334 353 26 348 344 345 335 320 338 329 324 339 355 4 5 1 358 342 308 317 326 336 342 343 346 350 354 355
237 149 126 118 126 195 139 159 191 95 88 58 5 359 2 351 357 5 2 345 328 338 336 345 340 340 353 357 356 355 356 357 356 346 338 346 2 9 358 355 2 3 354
262 158 142 149 198 207 188 195 153 102 84 49 2 356 359 4 5 356 349 327 262 196 173 259 252 40 345 323 344 10 358 347 346 350 2 11 7 7 1 358 358 357 0
179 138 145 164 190 157 175 227 170 122 113 33 358 343 350 2 19 17 9 16 19 27 79 175 179 237 269 332 3 14 15 12 17 40 25 12 8 2 355 350 347 349 350